Location: La Guerche
(47.9411°N, 1.2287°W)
Time: 06:23:13
(UTC+00:00)

Daily predictions for brighter satellites

Satellite Brightness Start Highest point End
(mag) Time Altitude Azimuth Time Altitude Azimuth Time Altitude Azimuth
Meteor 1-27 Rocket 3.9 19:41:17 10° N 19:47:15 74° ENE 19:53:10 10° SSE
Cosmos 1707 Rocket 3.5 19:48:58 10° N 19:53:20 76° E 19:57:39 10° SSE
ARGOS 3.9 19:48:30 10° S 19:53:48 57° W 19:59:06 10° NNW
CZ-2C R/B 2.6 19:49:22 10° NNE 19:54:32 63° ESE 19:59:44 10° S
NOSS 3-2 (A) 3.5 19:49:53 10° SSW 19:55:21 52° ESE 20:01:35 10° NE
Cosmos 192 4.4 19:50:51 10° NNW 19:55:46 67° ENE 20:00:39 10° SSE
USA 267 4.4 19:54:23 10° ENE 19:58:56 20° ESE 20:03:28 10° SSE
SL-16 R/B 3.1 19:56:02 10° NNW 20:01:15 36° NE 20:06:27 10° ESE
SL-4 R/B 2.4 19:57:36 10° W 20:01:40 61° NNW 20:05:25 10° ENE
BREEZE-M DEB (TANK) 2.0 20:00:26 10° WSW 20:02:50 87° N 20:07:52 10° ENE
BREEZE-M DEB (TANK) 4.2 19:58:23 10° WNW 20:03:16 22° WSW 20:05:52 10° S
MONITOR-E 3.4 20:01:28 10° SSE 20:03:48 87° ENE 20:06:10 10° NNW
SL-27 R/B 4.3 20:04:28 11° ESE 20:05:32 12° E 20:06:55 10° ENE
NOSS 3-2 (C) 3.8 20:00:56 10° S 20:06:10 39° ESE 20:12:01 10° NE
Cosmos 1470 Rocket 4.2 20:03:09 10° SSE 20:07:08 35° E 20:11:07 10° NNE
Sich 1 3.4 20:03:26 10° SSW 20:07:52 74° W 20:12:20 10° N
BREEZE-M DEB (TANK) 2.2 20:06:58 10° W 20:10:28 65° N 20:12:26 10° E
Cosmos 2082 Rocket 2.3 20:05:06 10° SSW 20:10:48 88° WNW 20:16:31 10° NNE
MetOp-A 4.3 20:06:01 10° S 20:11:23 77° WSW 20:16:46 10° NNW
USA 186 3.7 20:10:57 10° SSW 20:12:40 19° W 20:14:25 10° NW
Meteor 1-4 Rocket 2.6 20:13:52 10° NNW 20:17:20 72° W 20:20:46 10° S
Cosmos 2322 Rocket 3.0 20:13:18 10° NNW 20:18:39 39° NE 20:23:14 14° ESE
ERS-1 Rocket 4.5 20:16:14 11° ESE 20:19:42 21° ENE 20:23:26 10° NNE
H-2A R/B 4.2 20:15:46 10° SSW 20:19:58 26° W 20:24:06 10° NW
Cosmos 2278 4.3 20:14:26 10° NW 20:20:02 57° WSW 20:25:34 10° S
Cosmos 1862 Rocket 3.5 20:16:40 10° N 20:21:08 73° E 20:25:31 10° SSE
Meteor 1-25 Rocket 4.3 20:20:13 10° S 20:25:38 54° E 20:31:08 10° NNE
Cosmos 676 Rocket 4.1 20:21:00 10° SSW 20:26:20 89° WNW 20:31:44 10° NNE
SPOT 1/Viking Rocket 4.4 20:23:32 14° SE 20:27:27 35° ENE 20:32:10 10° N
Cosmos 2360 Rocket 3.5 20:22:45 10° NNW 20:27:37 28° NE 20:31:48 13° ESE
USA 276 2.1 20:24:47 10° WNW 20:27:58 85° N 20:30:11 18° ESE
USA 32 4.1 20:23:20 10° SSE 20:28:25 56° E 20:33:32 10° NNE
X-37B 1.3 20:25:37 10° W 20:28:36 40° SSW 20:30:22 20° SE
Meteor 1-18 Rocket 4.5 20:23:54 10° N 20:29:19 50° ENE 20:33:51 15° SE
Terra 3.7 20:27:56 11° E 20:30:38 17° ENE 20:33:36 10° NNE
ATLAS 3B R/B 3.6 20:26:26 10° SSE 20:31:28 24° ESE 20:36:31 10° ENE
IGS 5A 4.1 20:29:39 17° SE 20:32:29 39° ENE 20:36:22 10° N
Cosmos 1238 Rocket 2.5 20:30:32 15° SSE 20:32:40 42° E 20:35:35 10° NNE
Cosmos 468 Rocket 4.0 20:30:08 10° NNW 20:35:28 73° ENE 20:39:42 16° SSE
USA 234 4.0 20:29:43 10° E 20:35:56 49° NNE 20:42:10 10° NW
CZ-2C R/B 3.7 20:31:33 10° NNE 20:36:09 89° ESE 20:40:38 10° SSW
Cosmos 1980 Rocket 3.1 20:31:19 10° NW 20:36:44 47° WSW 20:42:05 10° S
Cosmos 1934 Rocket 4.1 20:30:31 10° S 20:36:53 85° W 20:43:18 10° N
Cosmos 44 3.6 20:32:08 10° NNW 20:36:58 57° NE 20:40:36 19° ESE
Lacrosse 5 2.0 20:33:05 10° NW 20:38:10 72° SW 20:41:50 19° SE
Resurs 01 Rocket 1.7 20:34:58 10° SSE 20:39:23 83° WSW 20:43:52 10° NNW
Cosmos 1602 4.0 20:37:46 13° SSE 20:41:08 49° E 20:44:58 10° NNE
GP-B 3.0 20:40:03 10° N 20:44:30 72° E 20:48:37 12° S
SPOT 3 Rocket 4.2 20:42:18 10° S 20:47:23 55° WSW 20:52:30 10° NNW
Cosmos 1933 Rocket 3.6 20:43:15 10° S 20:47:36 64° E 20:52:02 10° NNE
Cosmos 405 Rocket 2.5 20:50:14 10° S 20:53:56 82° E 20:57:44 10° NNE
Spot 2 Rocket 3.5 20:51:18 20° SSE 20:54:52 68° ENE 20:59:56 10° N
USA 238 DEB 3.9 20:49:12 10° SW 20:55:50 76° NW 21:02:50 10° NE
USA 238 3.9 20:49:17 10° SW 20:55:56 77° NW 21:02:55 10° NE
Meteor 1-20 Rocket 4.4 20:50:43 10° SSW 20:56:34 85° W 21:02:28 10° N
Cosmos 1515 3.7 20:54:05 10° N 20:57:52 60° ENE 20:59:37 29° SSE
CENTAUR R/B 2.5 20:53:05 10° SSW 20:59:02 78° SE 21:06:08 10° NE
Cosmos 1869 Rocket 4.3 20:57:44 26° SE 20:59:21 35° E 21:03:25 10° NNE
Okean 1-7 3.1 20:55:27 10° N 20:59:44 59° ENE 21:01:51 27° SSE
Cosmos 1741 Rocket 3.9 20:57:11 10° SSW 21:02:25 73° ESE 21:07:42 10° NNE
Cosmos 1437 Rocket 2.5 21:01:49 10° N 21:05:37 80° ENE 21:07:18 31° SSE
OBJECT-B 3.4 21:04:30 10° SW 21:06:55 19° W 21:09:20 10° NW
Cosmos 1763 Rocket 3.7 21:04:25 10° NNW 21:09:45 70° WSW 21:13:14 22° S
Cosmos 1703 Rocket 3.4 21:05:42 10° N 21:10:04 85° E 21:12:20 28° SSE
H-2A R/B 3.4 21:06:47 10° NNE 21:10:55 86° WNW 21:14:44 12° SSW
Cosmos 2333 Rocket 3.6 21:07:14 10° NNW 21:12:07 27° NE 21:15:19 17° E
Cosmos 1570 Rocket 4.0 21:06:52 10° NNW 21:12:13 72° ENE 21:14:57 29° SE
ATLAS 5 CENTAUR R/B 2.9 21:10:14 10° NNW 21:12:38 33° NE 21:14:58 21° E
Cosmos 2084 Rocket 3.4 21:09:01 10° SW 21:13:13 83° NW 21:17:32 10° NE
FAST 4.4 21:12:42 10° N 21:15:19 87° E 21:15:48 57° SSE
Landsat 7 3.9 21:15:20 23° S 21:18:15 75° WSW 21:23:02 10° NNW
SWARM A 4.2 21:15:09 10° N 21:18:27 61° E 21:18:54 54° SE
SPOT 5 2.9 21:17:38 35° SE 21:19:08 51° ENE 21:23:27 10° N
Cosmos 2208 Rocket 4.0 21:18:27 10° NNW 21:23:44 74° ENE 21:25:58 35° SE
ERBS 4.4 21:25:55 10° NW 21:28:35 22° NNE 21:30:13 16° NE
Okean 1 4.4 21:25:34 10° NNW 21:29:25 42° W 21:31:49 20° SSW
Cosmos 1733 Rocket 4.4 21:29:41 24° E 21:29:41 24° E 21:33:01 10° NE
Meteor 1-11 Rocket 4.2 21:31:46 34° SE 21:33:24 42° E 21:38:50 10° NNE
Lacrosse 4 Rocket 2.5 21:37:37 29° ENE 21:37:37 29° ENE 21:40:14 10° NE
SL-27 R/B 3.4 21:37:55 17° SW 21:40:14 44° WNW 21:43:26 10° N
Cosmos 2100 Rocket 3.9 21:36:57 25° S 21:40:41 80° E 21:46:52 10° N
SL-4 R/B 2.6 21:37:51 10° WNW 21:41:38 48° N 21:42:58 31° ENE
Meteor 2-4 Rocket 3.7 21:36:31 10° NNW 21:42:08 78° W 21:44:40 33° S
Cosmos 2219 Rocket 3.1 21:36:53 10° NNW 21:42:09 37° NE 21:44:23 27° E
Cosmos 540 Rocket 3.6 21:37:18 10° NNW 21:42:28 70° WSW 21:44:28 37° S
USA 267 3.1 21:36:16 10° ENE 21:42:47 67° SE 21:49:18 10° SW
Cosmos 2173 Rocket 3.9 21:41:11 27° S 21:44:40 80° E 21:50:48 10° N
SL-16 R/B 3.0 21:40:07 10° NW 21:45:29 44° WSW 21:48:19 25° SSW
Cosmos 1242 Rocket 3.5 21:47:49 10° N 21:50:53 37° ENE 21:50:53 37° ENE
SAR-Lupe-2 3.4 21:50:27 10° NNE 21:54:03 89° WNW 21:54:04 89° WSW
Cosmos 2322 3.9 21:50:06 10° NNW 21:55:44 61° ENE 21:57:25 42° ESE
NOSS 3-2 (C) 4.3 21:51:09 10° WSW 21:56:52 51° NW 22:03:29 10° NE
Cosmos 1725 Rocket 4.1 21:55:17 41° SSE 21:57:17 58° E 22:03:29 10° NNE
Cosmos 1459 Rocket 4.0 21:53:46 26° S 21:57:33 85° W 22:03:59 10° N
ERS-1 Rocket 3.3 21:56:14 37° SSW 21:58:04 62° WSW 22:03:04 10° NNW
Cosmos 1833 4.1 21:58:11 42° S 22:00:02 66° ESE 22:05:40 10° NNE
Cosmos 1500 3.9 22:00:27 40° WSW 22:01:21 50° WNW 22:05:01 10° N
SL-08 R/B 4.4 21:59:40 44° SSE 22:01:29 63° E 22:07:31 10° NNE
Cosmos 2346 Rocket 4.3 21:55:24 10° N 22:01:29 81° E 22:03:31 45° SSE
Meteor 1-13 Rocket 4.1 21:56:07 10° NNW 22:01:40 85° W 22:03:24 46° S
Cosmos 1536 3.1 22:03:04 53° ENE 22:03:04 53° ENE 22:06:30 10° NNE
Cosmos 2322 Rocket 3.1 21:57:26 10° NW 22:02:43 40° WSW 22:05:04 27° SSW
USA 276 4.5 22:01:24 10° W 22:02:32 17° WSW 22:02:32 17° WSW
Cosmos 1378 Rocket 4.4 22:00:44 10° N 22:04:51 36° ENE 22:04:51 36° ENE
Cosmos 2016 Rocket 3.9 22:02:20 39° S 22:04:54 78° E 22:11:19 10° NNE
Cosmos 2221 Rocket 3.5 22:00:29 10° N 22:04:59 86° W 22:05:37 66° S
Terra 1.8 22:06:49 55° S 22:07:48 75° WSW 22:12:35 10° NNW
Okean 3 3.7 22:03:45 10° NNW 22:08:02 64° W 22:08:38 56° SW
Cosmos 841 Rocket 4.4 22:03:19 10° NW 22:08:15 42° WSW 22:10:01 31° SSW
Cosmos 2333 4.2 22:04:51 10° NNW 22:10:41 77° ENE 22:12:06 52° SE
COSMOS 2487 3.7 22:12:29 33° NNE 22:12:29 33° NNE 22:14:32 10° NNE
Cosmos 2360 Rocket 2.4 22:06:26 10° NNW 22:12:02 61° WSW 22:13:33 45° SSW
Cosmos 1666 2.8 22:12:27 70° N 22:12:27 70° N 22:15:50 10° N
USA 234 3.2 22:16:21 44° SE 22:18:42 84° SW 22:25:18 10° NW
Iridium 4 Rocket 3.4 22:18:30 51° WSW 22:19:06 56° W 22:23:12 10° N
Cosmos 1864 Rocket 4.4 22:17:15 46° S 22:19:17 84° E 22:25:36 10° N
Lacrosse 5 3.9 22:17:30 10° W 22:20:21 15° WSW 22:21:01 15° SW
ATLAS 3B R/B 2.6 22:14:49 10° SW 22:21:26 81° NW 22:28:08 10° NE
Cosmos 1378 4.1 22:18:29 10° N 22:21:16 39° NE 22:21:16 39° NE
MOS 1-B Rocket 4.0 22:17:14 10° NNE 22:22:43 52° E 22:23:10 51° ESE
Cosmos 2297 Rocket 4.3 22:32:12 13° ENE 22:32:12 13° ENE 22:33:31 10° ENE
Cosmos 1743 4.0 22:35:20 34° NE 22:35:20 34° NE 22:37:49 10° NNE
Cosmos 2233 Rocket 4.0 22:34:08 56° SSE 22:35:25 72° E 22:41:44 10° NNE
Thor Agena Rocket 4.2 22:30:50 10° NNE 22:35:03 39° E 22:35:03 39° E
Cosmos 2061 Rocket 4.3 22:35:41 35° SW 22:38:18 63° WNW 22:44:28 10° N
COSMOS 2428 2.6 22:33:13 10° NNW 22:38:59 79° ENE 22:39:48 65° SE
Cosmos 44 Rocket 3.2 22:37:49 10° NW 22:42:50 90° NE 22:42:56 87° SE
Cosmos 2237 Rocket 3.1 22:37:58 10° NNW 22:43:15 38° NE 22:44:34 34° E
Cosmos 1271 Rocket 3.6 22:41:42 10° N 22:44:31 48° N 22:44:31 48° N
CENTAUR R/B 4.2 22:44:37 10° W 22:50:28 36° NNW 22:57:16 10° NE
NOSS 0 Rocket 4.1 22:44:19 10° NNW 22:50:33 63° ENE 22:51:50 52° ESE
Cosmos 1674 Rocket 3.9 22:47:05 10° NNW 22:51:00 58° WNW 22:51:00 58° WNW
Cosmos 2333 Rocket 2.2 22:51:09 10° NNW 22:56:52 65° WSW 22:57:19 63° SW
Cosmos 1503 Rocket 4.0 22:58:15 69° E 22:58:15 69° E 23:03:19 10° NNE
Geosat 4.0 22:58:12 70° ENE 22:58:23 71° ENE 23:03:25 10° NNW
Cosmos 1486 Rocket 4.3 23:02:24 56° WSW 23:03:11 64° WNW 23:08:22 10° NNE
Cosmos 1733 Rocket 4.2 23:06:45 36° W 23:07:04 36° WNW 23:11:11 10° N
Meteor 2-11 Rocket 4.3 23:06:27 71° S 23:07:10 88° E 23:13:19 10° N
Lacrosse 4 Rocket 3.1 23:13:52 26° W 23:15:06 31° NW 23:18:50 10° NNE
ALOS 2 3.2 23:17:00 54° NNE 23:17:00 54° NNE 23:20:35 10° N
Cosmos 773 Rocket 4.1 23:12:40 10° NNW 23:17:38 66° NE 23:17:38 66° NE
Cosmos 968 Rocket 3.9 23:17:23 51° W 23:18:01 55° WNW 23:23:05 10° NNE
Cosmos 2227 Rocket 3.5 23:21:59 28° E 23:21:59 28° E 23:25:39 10° NE
Cosmos 1072 Rocket 4.4 23:20:38 66° ESE 23:20:54 67° E 23:26:58 10° NNE
SL-4 R/B 4.3 23:17:42 10° WNW 23:18:32 16° WNW 23:18:32 16° WNW
Cosmos 1891 Rocket 4.5 23:21:57 65° ESE 23:22:28 68° E 23:28:49 10° NNE
USA 267 3.8 23:19:22 10° NE 23:25:44 56° NNW 23:32:05 10° W
Cosmos 2219 Rocket 2.8 23:20:51 10° NW 23:26:05 43° WSW 23:26:05 43° WSW
Cosmos 1782 Rocket 4.3 23:35:17 49° N 23:35:17 49° N 23:38:31 10° N
Cosmos 1538 Rocket 4.2 23:30:36 10° NNW 23:35:35 61° NE 23:35:35 61° NE
Cosmos 1607 4.2 23:39:33 10° NW 23:45:59 65° NE 23:47:26 51° E
